STARLINK-35328

Satellite information

Favourite Embed

Satellite Type and Status

PAYLOADIN ORBIT

Key statistics

Satellite STARLINK-35328 at a glance.

Uptime

30

Days in orbit

Revolutions

≈ 15.4

Per day

Orbit

SSO

Sun Synchronous Orbit

Inclination

97.6

Latest

Satellite identification and parameters

Extended collection of information and parameters for STARLINK-35328.

Object identification

Identified? True

Debris? False

Object name: STARLINK-35328

International designator: 2025-211A

Object number (NORAD): 65652

Object ID (CCSDS): 65652

Country: UNITED STATES OF AMERICA (US)

Current information (Y/N): Y

Orbital parameters

Period: 93.414 minutes

Inclination: 97.6035 deg

SMA: 6819.767 km

Apoapsis: 442.794 km

Periapsis: 440.469 km

RAAN: 334.1408 deg

Eccentricy: 0.00017044

Argument of periapsis: 79.3483 deg

Mean anomaly: 322.8829 deg

Mean motion: 15.41517546 rev/day

Mean motion (dot): -0.02314429 rev/day2

B* drag term: -0.061827903 1/REarth

Two-line elements (TLE)

Creation date: Oct. 19, 2025, 2:20 a.m.

Reference frame: TEME

Reference center: EARTH

Epoch: Oct. 19, 2025, midnight UTC

TLE line 0: 0 STARLINK-35328

TLE line 1: 1 65652U 25211A 25292.00003472 -.02314429 00000-0 -61828-1 0 9994

TLE line 2: 2 65652 97.6035 334.1408 0001704 79.3483 322.8829 15.41517546 5687

Live tracking on map

Real-time ground track for satellite STARLINK-35328.

In-orbit conjunctions

There are no conjunctions computed for STARLINK-35328, at the moment. Check back to stay up to date, as we update our databases every day.

Go to all conjunctions

Associated space launch

A batch of 24 satellites for the Starlink mega-constellation - SpaceX's project for space-based Internet communication system.

STARLINK-35328 was lifted into orbit during the mission ‘Falcon 9 Block 5 | Starlink Group 17-12’, on board a Falcon 9 space rocket.

The launch took place on Sept. 19, 2025, 4:31 p.m. from Space Launch Complex 4E.

For more information about the launch, click the button.

Launch to space Falcon 9 Block 5 | Starlink Group 17-12
Falcon 9 Block 5 | Starlink Group 17-12

Agency: SpaceX

Status: Launch Successful

Launch date: Sept. 19, 2025, 4:31 p.m. UTC

Rocket: Falcon 9

Launch pad: Space Launch Complex 4E

Location: Vandenberg SFB, CA, USA

...

Latest news about this satellite

News about space launch
Live coverage: SpaceX to launch 24 Starlink satellites on Falcon 9 rocket from Vandenberg SFB

The Starlink 17-12 mission will send the two dozen broadband internet satellites into a polar, low Earth orbit. SpaceX is targeting liftoff from pad 4E at Vandenberg Space Force Base at 8:43 a.m. PDT (11:43 a.m. EDT / 1543 UTC).

News about space launch
Launch Roundup: Starlink, NRO, and New Shepard missions scheduled

Another busy week of launches has arrived, with SpaceX dominating the launch manifest with four… The post Launch Roundup: Starlink, NRO, and New Shepard missions scheduled appeared first on NASASpaceFlight.com.


Newsletter sign-up

Weekly statistics, charts and insights to help you stay on top of the space industry.